Location: Sperry Observatory
(40.6664°N, 74.3236°W)
Time: 10:30:08
(UTC-04:00)

UOSAT-12 - Visible Passes

Search period start: 26 May 2016 00:00
Search period end: 05 June 2016 00:00
Orbit: 621 x 633 km, 64.6° (Epoch: 25 May)

Date Brightness Start Highest point End Pass type
(mag) Time Alt. Az. Time Alt. Az. Time Alt. Az.
26 May 7.2 02:20:47 70° NW 02:20:47 70° NW 02:25:17 10° NNE visible
26 May 9.6 03:59:57 10° WNW 04:01:39 12° NW 04:03:20 10° NNW visible
27 May 9.0 01:02:37 21° ENE 01:02:37 21° ENE 01:04:39 10° NE visible
27 May 8.2 02:39:54 31° WNW 02:40:44 33° NW 02:44:55 10° NNE visible
28 May 8.0 01:21:42 44° ENE 01:21:42 44° ENE 01:25:00 10° NE visible
28 May 9.2 02:58:58 14° WNW 03:00:59 18° NW 03:04:11 10° N visible
29 May 7.6 01:40:43 57° NNW 01:40:43 57° NNW 01:44:54 10° NNE visible
29 May 9.8 03:20:37 10° NW 03:21:26 10° NW 03:22:13 10° NNW visible
30 May 8.9 00:22:25 22° ENE 00:22:25 22° ENE 00:24:27 10° NE visible
30 May 8.5 01:59:41 28° WNW 02:00:26 29° NW 02:04:27 10° NNE visible
31 May 7.8 00:41:20 47° NE 00:41:20 47° NE 00:44:41 10° NE visible
31 May 9.5 02:18:35 12° WNW 02:20:43 16° NW 02:23:36 10° N visible
31 May 9.5 23:22:54 12° ENE 23:22:54 12° ENE 23:23:25 10° ENE visible
01 Jun 7.8 01:00:10 50° NW 01:00:10 50° NW 01:04:29 10° NNE visible
01 Jun 8.5 23:41:39 28° ENE 23:41:39 28° ENE 23:44:12 10° NE visible
02 Jun 8.9 01:18:53 22° WNW 01:20:09 25° NW 01:23:58 10° N visible
03 Jun 7.3 00:00:18 68° NNE 00:00:18 68° NNE 00:04:19 10° NNE visible
03 Jun 9.7 01:37:59 10° WNW 01:40:28 14° NW 01:42:58 10° N visible
03 Jun 8.9 22:41:33 18° E 22:41:33 18° E 22:43:21 10° ENE visible
04 Jun 8.1 00:18:48 38° W 00:19:42 42° NW 00:24:04 10° NNE visible
04 Jun 7.4 22:59:53 46° ESE 22:59:53 46° ESE 23:03:56 10° NE visible
